This is the latest recevied weather packets stored in our database for station/object RV1CJ-14. If no packets are shown the sender has not sent any weather packets the latest 10 day(s).
| Time | Temp. | Humidity | Pressure | Rain* | Wind** | Luminosity | Snow |
|---|---|---|---|---|---|---|---|
| 1777551603 | 6.67° C | 67% | 1017.3 hPa | 0 mm | - | 123 W/m² | - |
| 1777551003 | 7.22° C | 64% | 1017.3 hPa | 0 mm | - | 134 W/m² | - |
| 1777550403 | 7.22° C | 64% | 1017.3 hPa | 0 mm | - | 141 W/m² | - |
| 1777549803 | 7.22° C | 63% | 1017.4 hPa | 0 mm | - | 155 W/m² | - |
| 1777549203 | 7.22° C | 63% | 1017.3 hPa | 0 mm | - | 156 W/m² | - |
| 1777548603 | 7.22° C | 63% | 1017.3 hPa | 0 mm | - | 146 W/m² | - |
| 1777548003 | 7.78° C | 61% | 1017.2 hPa | 0 mm | - | 111 W/m² | - |
| 1777547403 | 7.78° C | 60% | 1017.3 hPa | 0 mm | - | 183 W/m² | - |
| 1777546803 | 7.78° C | 60% | 1017.2 hPa | 0 mm | - | 174 W/m² | - |
| 1777546203 | 7.78° C | 59% | 1017.2 hPa | 0 mm | - | 188 W/m² | - |
| 1777545603 | 7.78° C | 62% | 1017.2 hPa | 0 mm | - | 190 W/m² | - |
| 1777545003 | 7.22° C | 64% | 1017.4 hPa | 0 mm | - | 179 W/m² | - |
| 1777544403 | 7.22° C | 64% | 1017.4 hPa | 0 mm | - | 174 W/m² | - |
| 1777543803 | 7.78° C | 64% | 1017.5 hPa | 0 mm | - | 165 W/m² | - |
| 1777543203 | 7.78° C | 65% | 1017.5 hPa | 0 mm | - | 207 W/m² | - |
| 1777542603 | 7.78° C | 63% | 1017.5 hPa | 0 mm | - | 185 W/m² | - |
| 1777542003 | 7.78° C | 62% | 1017.5 hPa | 0 mm | - | 172 W/m² | - |
| 1777541404 | 7.78° C | 62% | 1017.5 hPa | 0 mm | - | 200 W/m² | - |
| 1777540803 | 8.33° C | 62% | 1017.5 hPa | 0 mm | - | 178 W/m² | - |
| 1777540203 | 8.33° C | 59% | 1017.5 hPa | 0 mm | - | 302 W/m² | - |
| 1777539603 | 8.89° C | 58% | 1017.4 hPa | 0 mm | - | 348 W/m² | - |
| 1777539003 | 8.89° C | 56% | 1017.4 hPa | 0 mm | - | 385 W/m² | - |
| 1777538403 | 8.89° C | 58% | 1017.4 hPa | 0 mm | - | 578 W/m² | - |
| 1777537803 | 8.89° C | 57% | 1017.6 hPa | 0 mm | - | 696 W/m² | - |
| 1777537203 | 8.89° C | 57% | 1017.6 hPa | 0 mm | - | 749 W/m² | - |
* Rain latest hour (hover to see other rain measurements)
** Current wind speed in m/s (hover to see current wind gust speed)